Skip Page Navigation
NASA JPL Caltech
NASA Logo - Jet Propulsion Laboratory + View the NASA Portal
+ Center for Near-Earth Object Studies
JPL Home Earth Solar System Stars & Galaxies Technology
JPL Solar System Dynamics
BODIES ORBITS EPHEMERIDES TOOLS PHYSICAL DATA DISCOVERY FAQ SITE MAP
IMPORTANT: The SSD Announcement email list is now available. Major changes are coming in the near future, including possible hostname and/or URL changes. To be notified of such changes, subscribe to this email list.

Please visit this page for more details.


JPL Small-Body Database Browser
Search: [ help ]  
324053 (2005 VS42)
Classification: Main-belt Asteroid          SPK-ID: 2324053
Ephemeris | Orbit Diagram | Orbital Elements | Mission Design | Physical Parameters | Discovery Circumstances | Close-Approach Data ]

[ show orbit diagram ]
Orbital Elements at Epoch 2458600.5 (2019-Apr-27.0) TDB
Reference: JPL 13 (heliocentric ecliptic J2000)
 Element Value Uncertainty (1-sigma)   Units 
e .1328009964013389 6.5217e-08  
a 2.760391141896834 3.6425e-08 au
q 2.393808447795505 1.9783e-07 au
i 5.569603459217816 5.7999e-06 deg
node 118.8266442560013 6.2345e-05 deg
peri 252.9393345456949 6.6395e-05 deg
M 1.750607715602721 2.25e-05 deg
tp 2458592.354069471029
(2019-Apr-18.85406947)
0.00010464 TDB
period 1675.152556619334
4.59
3.3157e-05
9.078e-08
d
yr
n .2149057998195249 4.2538e-09 deg/d
Q 3.126973835998163 4.1263e-08 au
  Orbit Determination Parameters
   # obs. used (total)      170  
   data-arc span      6081 days (16.65 yr)  
   first obs. used      2001-12-19  
   last obs. used      2018-08-13  
   planetary ephem.      DE431  
   SB-pert. ephem.      SB431-N16  
   condition code      0  
   norm. resid. RMS      .57895  
   source      ORB  
   producer      Otto Matic  
   solution date      2019-Jul-14 06:36:53  

Additional Information
 Earth MOID = 1.40001 au 
 Jupiter MOID = 2.34913 au 
 T_jup = 3.322 
[ show covariance matrix ]

Ephemeris | Orbit Diagram | Orbital Elements | Mission Design | Physical Parameters | Discovery Circumstances | Close-Approach Data ]

Physical Parameter Table
Parameter Symbol Value Units Sigma Reference Notes
absolute magnitude H 16.6   n/a MPO455389  

324053 (2005 VS42)          Discovered 2005-Nov-04 by CSS at Catalina
Reference: 20120406/Numbers.arcLast Updated: 2012-04-09

[ show close-approach data ]
Ephemeris | Orbit Diagram | Orbital Elements | Mission Design | Physical Parameters | Discovery Circumstances | Close-Approach Data ]
ABOUT SSD CREDITS/AWARDS PRIVACY/COPYRIGHT GLOSSARY LINKS
FirstGov 2019-Oct-16 10:57 UT
(server date/time)  
NASA Home Page
Site Manager:   Ryan S. Park
Webmaster  Alan B. Chamberlin